FW0308 Weather Reports


time (UTC)temp
C
wind
direction
speed
KPH
gust
KPH
rain 1hr
cm
rain 24hr
cm
rain mn
cm
humidity
%
barometer
mb
20260504081550 7 236 0.0 0.0 0.00 0.00 0.00 61 1015.4
20260504044541 7 233 0.0 0.0 0.00 0.00 0.00 61 1015.1
20260504043039 7 196 0.0 0.0 0.00 0.00 0.00 62 1015.0
20260504041534 7 226 0.0 0.0 0.00 0.00 0.00 61 1014.9
20260504040032 7 240 0.0 0.0 0.00 0.00 0.00 62 1014.9
20260504034535 6 228 0.0 0.0 0.00 0.00 0.00 63 1014.7
20260504033031 6 231 0.0 0.0 0.00 0.00 0.00 65 1014.7
20260504031531 6 213 0.0 0.0 0.00 0.00 0.00 66 1014.8
20260504030038 6 212 0.0 0.0 0.00 0.00 0.00 66 1014.7
20260504024530 6 212 0.0 0.0 0.00 0.00 0.00 65 1014.8
20260504023030 6 209 0.0 0.0 0.00 0.00 0.00 64 1014.8
20260504021533 6 198 0.0 0.0 0.00 0.00 0.00 64 1014.9
20260504020027 6 198 0.0 0.0 0.00 0.00 0.00 64 1014.9
20260504014528 6 205 0.0 0.0 0.00 0.00 0.00 63 1014.8
20260504013027 6 205 0.0 0.0 0.00 0.00 0.00 62 1014.6
20260504011526 7 200 0.0 0.0 0.00 0.00 0.00 61 1014.5
20260504010026 7 201 0.0 0.0 0.00 0.00 0.00 60 1014.4
20260504004526 7 201 0.0 0.0 0.00 0.00 0.00 60 1014.4
20260504003025 8 201 0.0 0.0 0.00 0.00 0.00 58 1014.3
20260504001525 8 268 0.0 0.0 0.00 0.00 0.00 56 1014.1
20260504000023 9 269 0.0 0.0 0.00 0.00 0.00 54 1014.0
20260503234538 10 269 0.0 0.0 0.00 0.00 0.00 51 1013.9
20260503233023 11 276 0.0 0.0 0.00 0.00 0.00 49 1013.7
20260503231526 11 283 0.0 0.0 0.00 0.00 0.00 46 1013.7
20260503230022 11 295 0.0 0.0 0.00 0.00 0.00 46 1013.7
20260503224522 11 271 0.0 0.0 0.00 0.00 0.00 45 1013.7
20260503223021 11 220 0.0 0.0 0.00 0.00 0.00 46 1013.6
20260503221523 11 239 0.0 0.0 0.00 0.00 0.00 44 1013.6
20260503220037 11 278 0.0 0.0 0.00 0.00 0.00 43 1013.7
20260503214518 12 333 0.0 0.0 0.00 0.00 0.00 41 1013.6
20260503213018 12 226 0.0 0.0 0.00 0.00 0.00 41 1013.3
20260503211520 12 308 0.0 4.8 0.00 0.00 0.00 38 1013.3
20260503210017 12 298 0.0 1.6 0.00 0.00 0.00 37 1013.3
20260503204515 12 235 0.0 0.0 0.00 0.00 0.00 38 1013.1
20260503203026 12 285 0.0 1.6 0.00 0.00 0.00 38 1013.3
20260503201518 12 290 0.0 8.0 0.00 0.00 0.00 39 1013.5
20260503200009 11 272 0.0 9.7 0.00 0.00 0.00 37 1013.5
20260503194507 11 269 0.0 11.3 0.00 0.00 0.00 39 1013.6
20260503193006 11 280 0.0 11.3 0.00 0.00 0.00 38 1014.0
20260503191512 11 21 0.0 1.6 0.00 0.00 0.00 40 1014.1
20260503190001 10 231 0.0 11.3 0.00 0.00 0.00 40 1014.4
20260503184611 10 325 3.2 11.3 0.00 0.00 0.00 39 1014.5
20260503183110 10 240 0.0 14.5 0.00 0.00 0.00 41 1014.6
20260503181609 10 286 3.2 12.9 0.00 0.00 0.00 41 1014.6
20260503180057 10 343 0.0 0.0 0.00 0.00 0.00 41 1014.7
20260503174553 9 312 4.8 16.1 0.00 0.00 0.00 42 1015.0
20260503173100 8 298 1.6 9.7 0.00 0.00 0.00 44 1014.9
20260503171552 9 274 3.2 11.3 0.00 0.00 0.00 43 1015.0